NOAA 16 DEB

Satellite information

Favourite Embed

Satellite Type and Status

DEBRISIN ORBIT

Key statistics

Satellite NOAA 16 DEB at a glance.

Uptime

8993

Days in orbit

Revolutions

≈ 14.6

Per day

Orbit

SSO

Sun Synchronous Orbit

Inclination

98.9

Latest

Satellite identification and parameters

Extended collection of information and parameters for NOAA 16 DEB.

Object identification

Identified? True

Debris? True

Object name: NOAA 16 DEB

International designator: 2000-055DL

Object number (NORAD): 41207

Object ID (CCSDS): 41207

Country: UNITED STATES OF AMERICA (US)

Current information (Y/N): Y

RCS size: SMALL

Orbital parameters

Period: 98.301 minutes

Inclination: 98.9269 deg

SMA: 7055.559 km

Apoapsis: 709.055 km

Periapsis: 645.794 km

RAAN: 346.4209 deg

Eccentricy: 0.0044831

Argument of periapsis: 89.7898 deg

Mean anomaly: 270.8439 deg

Mean motion: 14.64891942 rev/day

Mean motion (dot): 0.00018505 rev/day2

B* drag term: 0.0034132 1/REarth

Two-line elements (TLE)

Creation date: May 6, 2025, 3:54 a.m.

Reference frame: TEME

Reference center: EARTH

Epoch: May 5, 2025, 1:13 a.m. UTC

TLE line 0: 0 NOAA 16 DEB

TLE line 1: 1 41207U 00055DL 25125.05086343 .00018505 00000-0 34132-2 0 9992

TLE line 2: 2 41207 98.9269 346.4209 0044831 89.7898 270.8439 14.64891942492428

Live tracking on map

Real-time ground track for satellite NOAA 16 DEB.

In-orbit conjunctions

A list of the most updated potential collisions computed for object NOAA 16 DEB.

Target Orbit TCA Probability of collision Miss distance Type
COSMOS 2251 DEB LEO 2025-05-05 02:10:21 0.000101397 329.0 (m) DEBRIS
COSMOS 614 LEO 2024-11-14 14:54:51 0.0001568497 134.0 (m) PAYLOAD

Associated space launch

The NOAA K, L and M POES satellites begin the fifth generation of improved environmental monitoring in support of NOAA missions. The instrument payload has significant improvements and additions/deletions. The instrument changes have effected the spacecraft subsystems and data formats.

NOAA 16 DEB was lifted into orbit during the mission ‘Titan II SLV | NOAA 16’, on board a Titan II SLV space rocket.

The launch took place on Sept. 21, 2000, 10:22 a.m. from Space Launch Complex 4W.

For more information about the launch, click the button.

Launch to space Titan II SLV | NOAA 16
Titan II SLV | NOAA 16

Agency: N/A

Status: Launch Successful

Launch date: Sept. 21, 2000, 10:22 a.m. UTC

Rocket: Titan II SLV

Launch pad: Space Launch Complex 4W

Location: Vandenberg SFB, CA, USA

...

Latest news about this satellite

There are no fresh news available about this satellite. Check back as we update our databases every day.


Newsletter sign-up

Weekly statistics, charts and insights to help you stay on top of the space industry.